Find Starlink 30791

NORAD ID: 58177 Int'l Des: 2023-167 Owner: SPXS Country: US Constellation: starlink operational
LEOCIRCULAR

現在のビュー

3D地球を読み込み中...

About Starlink 30791

Starlink 30791 (NORAD 58177) is a starlink constellation satellite (v2 mini) launched Oct 30, 2023 by SPXS of US. It operates in LEO, CIRCULAR orbit with a mass of 730.00 kg.

次回通過

Passes for default location (London). Set your location on the main map for personalized predictions.

高度履歴

Loading altitude history...

軌道要素

1 58177U 23167C 26263.31761934 .00000435 00000-0 25338-4 0 9997
2 58177 43.0011 124.0127 0001017 270.8934 89.1801 15.27575108160755
Epoch: Sep 20, 2026 • Age: 16 hours

現在のステータス

高度 482.5 km
遠地点 / 近地点 N/A
速度 7.63 km/s
衛星直下点 16.56°N, 78.1°W
打ち上げ日 Oct 30, 2023
運用期間 2.8 years
タイプ internet

技術仕様

分類 Payload
質量 730.00 kg
乾燥質量 700.00 kg
長さ 0.30 m
スパン 29.00 m
形状 ? Box + pan
製造者 SPXS
バスタイプ Starlink V2M
フェーズステータス In Orbit
所有者/国 SPXS/US

Most Searched